map of GZW home
Great Circle Mapper logo
GZW - Airport
Location
City:  Qazvin, Iran
Near (Alt.):Ghazvin
ICAO / IATA:OIIK / GZW

Details
Type:Airport (Aerodrome, Airfield)
Latitude:3614'24"N (36.240061)
Longitude:5002'50"E (50.047153)
Datum:WGS 1984
Elevation:4184 ft (1275 m)
Runways:1
Longest:3670 × 131 ft (1119 × 40 m), paved

Time
Time Zone:UTC+3:30 (DST+4:30)
Local Time:

Weather
METAR:OIIK 310800Z 15012KT CAVOK 15/M01 Q1020

Related Locations
Nearby:
Farthest:GMR: 11478 mi / 18472 km
Mangareva [Totegegie], Gambier Islands, PF

Find:

   beyond  
but within

Other Information
Maps:
NOTAMs:
Links:
Sources:

  
flag of Iran   

Sectional Chart

Flight Planning
at skyvector.com

Satellite Image

Google Maps Satellite View

 

Copyright © 2004-2014 Karl L. Swartz. All rights reserved.
The Great Circle Mapper name and logo are trademarks of the Great Circle Mapper.
All other trademarks mentioned herein belong to their respective owners.
Please see credits for attibutions and further copyright information.

  Follow gcmap on Facebook Follow gcmap on Twitter

hCard Microformat

Geo Microformat